[[{"header":{"parameterUnit":"m.s-1","parameterCategory":1,"la1":30.2991,"la2":30.254,"lo1":-89.0895,"lo2":-89.0444,"dy":0.0017,"dx":0.0017,"nx":28,"ny":28,"refTime":"2025-05-01T09:00:00:Z","depth":0,"parameterNumber":2,"parameterNumberName":"U-component_of_WINDS"},"data":[0,0,0,0,0,0,0,0,0,0,0,0,0,0,0,0,0,0,0,0,0,0,0,0,0,0,0,0,0,0,0,0,0,0,0,0,0,0,0,0,0,0,0,0,0,0,0,0,0,0,0,0,0,0,0,0,0,0,-0.9811,-0.9811,0,-0.9817,-0.9817,-0.9817,-0.9826,-0.9827,-0.9827,-0.9827,-0.9834,-0.9834,-0.9834,0,0,0,0,0,0,0,0,0,0,0,0,0,-0.9808,-0.9808,-0.9811,-0.9811,-0.9811,-0.9817,-0.9817,-0.9817,-0.9826,-0.9827,-0.9827,-0.9827,-0.9834,-0.9834,-0.9834,0,0,0,0,0,0,0,0,0,0,0,0,0,-0.9812,-0.9808,-0.9811,-0.9816,-0.9817,-0.9817,-0.9817,-0.9817,-0.9826,-0.9827,-0.9827,-0.9827,-0.9834,-0.9834,-0.9834,-0.983,0,0,-0.9835,-0.9835,0,0,0,0,0,0,0,0,-0.9811,-0.9812,-0.9815,-0.9816,-0.9816,-0.9821,-0.9819,-0.9822,-0.9826,-0.9823,-0.9827,-0.9827,-0.983,-0.983,-0.9831,-0.983,-0.9831,-0.9835,-0.9835,-0.9835,-0.9835,0,0,0,0,0,0,0,-0.9811,-0.9811,-0.9813,-0.9815,-0.9816,-0.9819,-0.982,-0.982,-0.9825,-0.9823,-0.9824,-0.9824,-0.983,-0.9831,-0.9831,-0.9831,-0.9835,-0.9835,-0.9835,-0.9835,-0.9828,-0.9828,0,0,0,0,0,0,-0.981,-0.9811,-0.9813,-0.9813,-0.9814,-0.9819,-0.982,-0.9819,-0.9825,-0.9826,-0.9824,-0.9825,-0.9831,-0.9831,-0.9831,-0.9827,-0.9835,-0.9835,-0.9835,-0.9828,-0.9828,-0.9828,0,0,0,0,0,0,-0.981,-0.981,-0.9813,-0.9812,-0.9813,-0.9819,-0.9818,-0.9819,-0.982,-0.9826,-0.9827,-0.9824,-0.9831,-0.9831,-0.9831,-0.9828,-0.9835,-0.9835,-0.9829,-0.9828,-0.9828,-0.9818,0,0,0,0,0,0,-0.981,-0.981,-0.9808,-0.9812,-0.9813,-0.9811,-0.9818,-0.9819,-0.982,-0.9821,-0.9826,-0.9827,-0.9831,-0.983,-0.9831,-0.9828,-0.9835,-0.9829,-0.9829,-0.9828,-0.9819,-0.9818,-0.9817,0,0,0,0,0,-0.981,-0.9805,-0.9808,-0.9808,-0.981,-0.9811,-0.9811,-0.9816,-0.982,-0.9818,-0.9822,-0.9826,-0.9828,-0.983,-0.9831,-0.9828,-0.9829,-0.9829,-0.9828,-0.9819,-0.9818,-0.9817,0,0,0,0,0,0,-0.98,-0.9805,-0.9809,-0.9805,-0.9807,-0.9812,-0.981,-0.9814,-0.9816,-0.9817,-0.9823,-0.9824,-0.9823,-0.9825,-0.9828,-0.9824,-0.9829,-0.9829,-0.9823,-0.9821,-0.982,-0.982,-0.9835,0,0,0,0,0,-0.9797,-0.9796,-0.9802,-0.9798,-0.9799,-0.9804,-0.9805,-0.9809,-0.9811,-0.9812,-0.9816,-0.9819,-0.982,-0.9821,-0.9822,-0.982,-0.9821,-0.9818,-0.9817,-0.9816,-0.9815,-0.9815,-0.9814,-0.9826,-0.9826,-0.9826,0,0,-0.9792,-0.9795,-0.9794,-0.9796,-0.9798,-0.9798,-0.9805,-0.9805,-0.9805,-0.9813,-0.9812,-0.9815,-0.9819,-0.9817,-0.9816,-0.9819,-0.9813,-0.9815,-0.9815,-0.9815,-0.9814,-0.9813,-0.9812,-0.9826,-0.9826,-0.9826,0,0,-0.9782,-0.9784,-0.9781,-0.9783,-0.9787,-0.9791,-0.979,-0.9795,-0.9797,-0.9797,-0.9803,-0.9803,-0.9805,-0.9808,-0.981,-0.9802,-0.9807,-0.9802,-0.9796,-0.9796,-0.9795,-0.9794,-0.9792,-0.9791,-0.9802,-0.9802,-0.9802,0,-0.9774,-0.9774,-0.9779,-0.9779,-0.978,-0.9787,-0.9785,-0.9787,-0.9791,-0.9792,-0.9795,-0.9798,-0.9801,-0.98,-0.9799,-0.98,-0.98,-0.9802,-0.9794,-0.9794,-0.9793,-0.9791,-0.979,-0.9801,-0.9801,-0.9801,-0.9802,0,-0.9765,-0.9765,-0.9763,-0.9766,-0.9767,-0.9766,-0.9772,-0.9772,-0.9776,-0.978,-0.978,-0.9784,-0.9787,-0.9787,-0.9791,-0.9788,-0.9789,-0.9793,-0.9798,-0.9791,-0.9789,-0.9789,-0.9801,-0.9801,-0.9801,-0.9801,0,0,-0.9748,-0.9755,-0.9755,-0.9757,-0.9761,-0.9762,-0.9761,-0.9764,-0.9764,-0.9767,-0.9767,-0.9769,-0.9773,-0.9775,-0.978,-0.9779,-0.9774,-0.9783,-0.9784,-0.9782,-0.9771,-0.9768,-0.9767,-0.9777,-0.9777,-0.9777,-0.9771,0,-0.9739,-0.9738,-0.9744,-0.9741,-0.9742,-0.9749,-0.9749,-0.9752,-0.9756,-0.9757,-0.9762,-0.9763,-0.9768,-0.977,-0.977,-0.9774,-0.9772,-0.9775,-0.9778,-0.9778,-0.9776,-0.9766,-0.9762,-0.9756,-0.977,-0.977,-0.977,0,-0.9728,-0.9731,-0.9728,-0.9734,-0.9734,-0.9734,-0.9737,-0.9738,-0.9743,-0.9746,-0.9748,-0.9754,-0.9754,-0.9759,-0.9761,-0.9763,-0.9765,-0.9767,-0.9767,-0.9768,-0.9773,-0.9766,-0.9754,-0.9753,-0.9769,-0.9769,-0.9769,0,-0.9716,-0.9719,-0.9718,-0.972,-0.9726,-0.9726,-0.9729,-0.9734,-0.9735,-0.9738,-0.974,-0.9743,-0.9745,-0.9748,-0.9754,-0.9757,-0.9755,-0.9761,-0.9758,-0.9758,-0.9757,-0.9757,-0.9745,-0.9758,-0.9758,-0.9758,-0.9758,0,-0.9706,-0.9704,-0.9713,-0.9712,-0.9711,-0.9718,-0.9717,-0.9721,-0.9725,-0.9726,-0.9733,-0.9734,-0.9742,-0.9744,-0.9749,-0.975,-0.9751,-0.9754,-0.9755,-0.9753,-0.9753,-0.9754,-0.9755,-0.9758,-0.9758,-0.9758,-0.9758,0,-0.9692,-0.9698,-0.9697,-0.9704,-0.9706,-0.9705,-0.9711,-0.9711,-0.9716,-0.9717,-0.9717,-0.9725,-0.9728,-0.9735,-0.9739,-0.9743,-0.9743,-0.9745,-0.9741,-0.9742,-0.9739,-0.9739,-0.9728,-0.9727,-0.974,-0.974,-0.974,0,-0.9685,-0.9684,-0.969,-0.9691,-0.9694,-0.9695,-0.9697,-0.9704,-0.9706,-0.9712,-0.9711,-0.9715,-0.9718,-0.9722,-0.9729,-0.9733,-0.9735,-0.9731,-0.9736,-0.9734,-0.9735,-0.9735,-0.9736,-0.973,-0.973,-0.973,-0.9729,0,-0.9671,-0.9675,-0.9676,-0.968,-0.9682,-0.9685,-0.9688,-0.9689,-0.9697,-0.9699,-0.9701,-0.9704,-0.9709,-0.9713,-0.9718,-0.9721,-0.9727,-0.9728,-0.9728,-0.9725,-0.9723,-0.9725,-0.9738,-0.9728,-0.9728,-0.9728,-0.9728,-0.9728,-0.9661,-0.9661,-0.9665,-0.9668,-0.9671,-0.9674,-0.9675,-0.968,-0.9682,-0.9687,-0.9691,-0.9694,-0.97,-0.9707,-0.9711,-0.9713,-0.9716,-0.9716,-0.9715,-0.9715,-0.9714,-0.9723,-0.9714,-0.9714,-0.9715,-0.9715,-0.9715,0,-0.9648,-0.9652,-0.9654,-0.9658,-0.966,-0.9665,-0.967,-0.9671,-0.9673,-0.9678,-0.9681,-0.9685,-0.9689,-0.9696,-0.9701,-0.9701,-0.9704,-0.9702,-0.9702,-0.9703,-0.9712,-0.9711,-0.97,-0.97,-0.97,-0.97,-0.97,-0.97,-0.9641,-0.9641,-0.9645,-0.9648,-0.9651,-0.9654,-0.9656,-0.9659,-0.9663,-0.9667,-0.967,-0.9675,-0.9681,-0.9686,-0.969,-0.9692,-0.9694,-0.9691,-0.9694,-0.9701,-0.9703,-0.9704,-0.9704,-0.9691,-0.9691,-0.9685,-0.9685,-0.9685]},{"header":{"parameterUnit":"m.s-1","parameterCategory":1,"la1":30.2991,"la2":30.254,"lo1":-89.0895,"lo2":-89.0444,"dy":0.0017,"dx":0.0017,"nx":28,"ny":28,"refTime":"2025-05-01T09:00:00:Z","depth":0,"parameterNumber":3,"parameterNumberName":"V-component_of_WINDS"},"data":[0,0,0,0,0,0,0,0,0,0,0,0,0,0,0,0,0,0,0,0,0,0,0,0,0,0,0,0,0,0,0,0,0,0,0,0,0,0,0,0,0,0,0,0,0,0,0,0,0,0,0,0,0,0,0,0,0,0,4.7759,4.7759,0,4.777,4.777,4.777,4.7716,4.7715,4.7713,4.7712,4.7722,4.7723,4.7725,0,0,0,0,0,0,0,0,0,0,0,0,0,4.769,4.7691,4.7759,4.7759,4.7759,4.777,4.777,4.777,4.7716,4.7714,4.7713,4.7711,4.7721,4.7723,4.7725,0,0,0,0,0,0,0,0,0,0,0,0,0,4.7712,4.7692,4.7759,4.7734,4.7732,4.777,4.777,4.777,4.7717,4.7714,4.7712,4.771,4.772,4.7723,4.7725,4.7788,0,0,4.7733,4.7734,0,0,0,0,0,0,0,0,4.7711,4.7715,4.7737,4.7736,4.7733,4.7739,4.7749,4.7776,4.7717,4.7722,4.7711,4.7709,4.7729,4.7731,4.7738,4.7789,4.7789,4.7734,4.7735,4.7736,4.7737,0,0,0,0,0,0,0,4.7709,4.7714,4.7763,4.7738,4.7735,4.7721,4.7722,4.7754,4.7739,4.7722,4.7718,4.772,4.7728,4.7736,4.7738,4.7789,4.7734,4.7736,4.7737,4.7738,4.7889,4.7892,0,0,0,0,0,0,4.7711,4.7713,4.7763,4.7764,4.7716,4.7724,4.7725,4.774,4.7738,4.7736,4.7722,4.7717,4.7733,4.7735,4.7738,4.7809,4.7736,4.7739,4.774,4.7887,4.789,4.7892,0,0,0,0,0,0,4.771,4.7716,4.7763,4.7737,4.7742,4.7728,4.7745,4.7741,4.7749,4.7738,4.7735,4.7733,4.7731,4.7735,4.7776,4.7809,4.774,4.7742,4.7884,4.7888,4.7891,4.7954,0,0,0,0,0,0,4.7708,4.7716,4.7741,4.7738,4.7744,4.7801,4.7747,4.7743,4.7754,4.7748,4.7748,4.7746,4.7729,4.7772,4.7778,4.7811,4.7744,4.7881,4.7886,4.789,4.7949,4.7959,4.7968,0,0,0,0,0,4.7706,4.7758,4.7742,4.7748,4.7774,4.7803,4.7806,4.7786,4.7757,4.778,4.7773,4.7746,4.7805,4.7777,4.7783,4.7818,4.7879,4.7884,4.789,4.7944,4.7957,4.7968,0,0,0,0,0,0,4.7765,4.7757,4.774,4.7793,4.7799,4.7794,4.7823,4.78,4.7815,4.7809,4.7783,4.7784,4.7829,4.7828,4.7796,4.7877,4.7837,4.7844,4.7876,4.7888,4.7898,4.7896,4.7746,0,0,0,0,0,4.7784,4.7809,4.7801,4.7848,4.7852,4.7837,4.7849,4.7833,4.7838,4.7841,4.7837,4.7842,4.7862,4.7875,4.7893,4.7949,4.7947,4.7976,4.7985,4.7993,4.7999,4.8026,4.8038,4.7911,4.7911,4.791,0,0,4.7824,4.7823,4.784,4.786,4.7863,4.7888,4.784,4.7869,4.7886,4.7845,4.7883,4.788,4.7885,4.7933,4.7954,4.7933,4.8034,4.8,4.8007,4.8008,4.8033,4.8045,4.8056,4.7914,4.7914,4.7913,0,0,4.7908,4.7911,4.795,4.7953,4.7958,4.7947,4.7957,4.7955,4.7951,4.7989,4.7958,4.7979,4.8014,4.8017,4.8024,4.8109,4.8083,4.8116,4.8166,4.8192,4.8202,4.8211,4.8239,4.825,4.8122,4.8122,4.8122,0,4.7957,4.7994,4.7972,4.8003,4.8011,4.7975,4.8013,4.8018,4.8028,4.8034,4.8012,4.8053,4.8054,4.8101,4.8122,4.8129,4.8138,4.8114,4.8203,4.8211,4.8219,4.8245,4.8256,4.8126,4.8125,4.8125,4.8124,0,4.8052,4.8078,4.8108,4.8118,4.8131,4.8165,4.8148,4.8163,4.8146,4.8138,4.8176,4.8175,4.8191,4.8202,4.8186,4.8247,4.8233,4.8207,4.8166,4.8235,4.8259,4.827,4.8131,4.813,4.8128,4.8128,0,0,4.8173,4.817,4.8182,4.8185,4.8187,4.8206,4.8238,4.8253,4.8266,4.8274,4.8299,4.8329,4.8304,4.8312,4.8296,4.832,4.8384,4.8291,4.829,4.8306,4.8449,4.8466,4.8478,4.8368,4.837,4.8372,4.8447,0,4.8254,4.8308,4.8289,4.8344,4.8366,4.8331,4.8359,4.8363,4.8356,4.8373,4.8366,4.8386,4.8353,4.8357,4.838,4.8372,4.8412,4.8367,4.8389,4.8391,4.8387,4.8491,4.8511,4.8582,4.8457,4.8458,4.846,0,4.8355,4.8366,4.8423,4.8419,4.8428,4.8453,4.8465,4.8482,4.8486,4.8479,4.8487,4.8465,4.8495,4.8455,4.8495,4.8465,4.8473,4.8471,4.8473,4.8472,4.8428,4.8491,4.8605,4.8614,4.8475,4.8474,4.8473,0,4.8434,4.8464,4.8501,4.8506,4.8503,4.8521,4.8521,4.8522,4.8531,4.8542,4.8547,4.8562,4.8569,4.858,4.8562,4.8535,4.8604,4.8563,4.8597,4.8598,4.8612,4.8611,4.8725,4.8622,4.8621,4.8621,4.8621,0,4.8525,4.856,4.8537,4.8559,4.8597,4.8575,4.8614,4.861,4.8611,4.8631,4.8603,4.8623,4.86,4.8617,4.8604,4.8638,4.8642,4.8636,4.8632,4.8637,4.8638,4.8641,4.8634,4.8624,4.8623,4.8623,4.8622,0,4.8619,4.8605,4.8643,4.8637,4.8636,4.8665,4.8659,4.8679,4.867,4.8696,4.8701,4.8687,4.8706,4.869,4.8709,4.87,4.8744,4.8734,4.8743,4.8739,4.8773,4.8769,4.8892,4.8906,4.8796,4.8797,4.8798,0,4.8677,4.8703,4.87,4.8711,4.8712,4.8732,4.8741,4.8721,4.8731,4.8736,4.8755,4.8772,4.8784,4.8815,4.8806,4.882,4.8809,4.8851,4.881,4.8814,4.8806,4.8804,4.8805,4.8858,4.8859,4.886,4.8861,0,4.878,4.8771,4.8786,4.8798,4.881,4.8818,4.8825,4.8836,4.8814,4.8828,4.8847,4.8856,4.8874,4.889,4.8901,4.89,4.8877,4.8874,4.8883,4.8887,4.889,4.8886,4.8762,4.8871,4.887,4.8869,4.8869,4.8869,4.8856,4.8877,4.8877,4.8894,4.8896,4.8902,4.892,4.8913,4.8928,4.8941,4.8928,4.895,4.8951,4.8963,4.8965,4.8981,4.8963,4.8976,4.8979,4.8982,4.8985,4.889,4.8983,4.8983,4.8983,4.8983,4.8982,0,4.8955,4.8953,4.8969,4.8978,4.8991,4.8968,4.8974,4.8986,4.9005,4.9008,4.902,4.9041,4.9056,4.9048,4.9061,4.9076,4.9065,4.908,4.9077,4.9077,4.9002,4.8992,4.9088,4.9088,4.9088,4.9088,4.9088,4.9088,4.9008,4.9041,4.9032,4.9065,4.9063,4.9084,4.9089,4.9094,4.9096,4.912,4.9132,4.9127,4.9125,4.9137,4.915,4.9147,4.9152,4.917,4.9163,4.9093,4.9082,4.9072,4.9063,4.9172,4.9172,4.9236,4.9237,4.9237]}]]